Location: Musselshell
(46.5176°N, 108.0911°W)
Time: 01:18:39
(UTC+00:00)

AO-73 - Pass Details

Date: 30 June 2022
Orbit: 579 x 657 km, 97.6° (Epoch: 17 August)

Event Time Altitude Azimuth Distance (km) Brightness Sun altitude
Rises 10:09:24 0° 28° (NNE) 2,957 ? -10.1°
Reaches altitude 10° 10:12:19 10° 49° (NE) 2,055 ? -9.7°
Maximum altitude 10:15:17 17° 91° (E) 1,630 ? -9.4°
Drops below altitude 10° 10:18:15 10° 132° (SE) 2,062 ? -9.1°
Sets 10:21:10 0° 152° (SSE) 2,973 ? -8.7°
